Back to catalog

EXPLORER 38

RAE-A

AliveScienceMEO
NORAD 3307·PAYLOAD·🇺🇸 United States

Launched Jul 4, 1968 from Vandenberg Space Force Base

Loading…

Next Passes (next 24 hours)

TLE

FreshSource: Space-Track

Epoch: Sep 13, 2026, 06:46 UTC

1 03307U 68055A   26256.28211613 -.00000010  00000-0  00000-0 0  9994
2 03307 120.8214 209.3744 0013767 287.3247  72.5850  6.42588908365099

Track EXPLORER 38 in real time with AllMySat

Download on the App Store